TimeMDT,TemperatureF,Dew PointF,Humidity,Sea Level PressureIn,VisibilityMPH,Wind Direction,Wind SpeedMPH,Gust SpeedMPH,PrecipitationIn,Events,Conditions,WindDirDegrees,DateUTC
12:52 AM,57.0,54.0,89,30.01,10.0,Calm,Calm,-,N/A,,Clear,0,2013-08-28 06:52:00
1:52 AM,57.0,51.1,81,30.01,10.0,ENE,4.6,-,N/A,,Clear,70,2013-08-28 07:52:00
2:52 AM,53.1,48.9,86,30.01,10.0,ESE,5.8,-,N/A,,Clear,110,2013-08-28 08:52:00
3:52 AM,51.1,46.9,86,30.01,10.0,SSE,5.8,-,N/A,,Clear,160,2013-08-28 09:52:00
4:52 AM,51.1,46.0,83,30.01,10.0,East,5.8,-,N/A,,Clear,80,2013-08-28 10:52:00
5:52 AM,50.0,46.0,86,30.03,10.0,East,6.9,-,N/A,,Clear,80,2013-08-28 11:52:00
6:52 AM,48.0,46.9,96,30.06,8.0,Calm,Calm,-,N/A,,Clear,0,2013-08-28 12:52:00
7:52 AM,52.0,48.9,89,30.12,10.0,Calm,Calm,-,N/A,,Partly Cloudy,0,2013-08-28 13:52:00
8:52 AM,60.1,51.1,72,30.10,10.0,Calm,Calm,-,N/A,,Clear,0,2013-08-28 14:52:00
9:52 AM,64.9,51.1,61,30.09,10.0,Calm,Calm,-,N/A,,Clear,0,2013-08-28 15:52:00
10:52 AM,69.1,52.0,54,30.09,10.0,Calm,Calm,-,N/A,,Clear,0,2013-08-28 16:52:00
11:52 AM,73.0,50.0,44,30.08,10.0,Variable,3.5,-,N/A,,Clear,0,2013-08-28 17:52:00
12:52 PM,77.0,48.9,37,30.05,10.0,SSW,4.6,-,N/A,,Clear,210,2013-08-28 18:52:00
1:52 PM,79.0,44.1,29,30.02,10.0,Variable,4.6,-,N/A,,Clear,0,2013-08-28 19:52:00
2:52 PM,81.0,39.9,23,30.00,10.0,WSW,4.6,-,N/A,,Clear,250,2013-08-28 20:52:00
3:52 PM,82.9,39.0,21,29.97,10.0,Variable,5.8,-,N/A,,Clear,0,2013-08-28 21:52:00
4:52 PM,82.0,37.9,21,29.97,10.0,South,9.2,-,N/A,,Clear,170,2013-08-28 22:52:00
5:52 PM,81.0,33.1,18,29.97,10.0,SW,6.9,-,N/A,,Clear,220,2013-08-28 23:52:00
6:52 PM,79.0,32.0,18,30.00,10.0,SW,3.5,-,N/A,,Clear,230,2013-08-29 00:52:00
7:52 PM,73.0,39.9,30,30.03,10.0,Calm,Calm,-,N/A,,Partly Cloudy,0,2013-08-29 01:52:00
8:52 PM,69.1,41.0,36,30.03,10.0,ESE,9.2,-,N/A,,Partly Cloudy,110,2013-08-29 02:52:00
9:52 PM,68.0,43.0,40,30.03,10.0,SE,9.2,-,N/A,,Clear,130,2013-08-29 03:52:00
10:52 PM,63.0,45.0,52,30.05,10.0,SE,10.4,-,N/A,,Clear,130,2013-08-29 04:52:00
11:52 PM,61.0,45.0,56,30.06,10.0,SSE,8.1,-,N/A,,Clear,160,2013-08-29 05:52:00